Weather in Nikolaevka

Ukraine / Kherson District     46°06′21″N   34°36′26″E
temp.,
°C
wind,
m/s
gust,
m/s
humid.,
%
clouds,
%
prec.,
mm/h
press.,
hPa
HPBL,
m
20 june, sun
sun2000:00+24ene8128175 4.1 1010346
03:00+23e91381100 4.6 1009377
06:00+23ese911782 0.1 1009457
09:00+22ese9108928 1.6 1010479
12:00+22e998136 0.1 1010346
15:00+22e898197 0.1 1011300
18:00+22e78790 0.0 1010260
21:00+23ese56790 0.0 1011135
21 june, mon
mon2100:00+23se22845 0.0 101037
03:00+22wnw11845 0.0 101038
06:00+22nne33820 0.0 1011111
09:00+22nne11770 0.0 101193
12:00+23e12750 0.0 101165
15:00+24e457213 0.0 1011157
18:00+23e678120 0.0 1010238
21:00+24ene447625 0.0 101059
22 june, tue
tue2200:00+24nne22760 0.0 100915
03:00+23nne33760 0.0 100948
06:00+23e22815 0.0 100936
09:00+23e458341 0.0 101096
12:00+23ene679398 0.0 1010231
15:00+23e77905 0.0 1010234
18:00+23e798553 0.0 1011239
21:00+23ese578384 0.3 1011129
23 june, wed
wed2300:00+23sse1287100 0.0 101138
03:00+23ese118611 0.0 101130
06:00+23e11834 0.0 101130
09:00+23se66858 0.0 1013269
12:00+22e568799 0.0 1013221
15:00+23ese5686100 0.0 1014204
18:00+23ese448380 0.0 1014116
21:00+23ese458310 0.0 1014102
24 june, thu
thu2400:00+23wsw22845 0.0 101446
03:00+23n228345 0.0 101332
06:00+23wnw11825 0.0 101429
09:00+23ssw228166 0.0 101454
12:00+24ne227416 0.0 101477
15:00+25ese55748 0.0 1014154
18:00+24ese56804 0.0 1014119
21:00+24se6782100 0.0 1014107